Miscellaneous Local Product
Issued by NWS Hastings, NE

Home | Current Version | Previous Version | Graphics & Text | Print | Product List | Glossary On
Versions: 1 2 3 4 5 6 7 8 9 10 11 12 13 14 15 16 17 18 19 20 21 22 23 24 25 26 27 28 29 30 31 32 33 34 35 36 37 38 39 40 41 42 43 44 45 46 47 48 49 50
354
AXUS43 KGID 210602
MISGRI

GID CWA HOURLY WEATHER ROUNDUP
NATIONAL WEATHER SERVICE HASTINGS NE
100 AM CDT SAT OCT 21 2017

NOTE: "FAIR" INDICATES FEW OR NO CLOUDS BELOW 12,000 FEET WITH NO
SIGNIFICANT WEATHER AND/OR OBSTRUCTIONS TO VISIBILITY.

...SOUTH CENTRAL NEBRASKA...

CITY           SKY/WX    TMP DP  RH WIND       PRES   REMARKS
GRAND ISLAND   CLEAR     66  59  78 S23G38    29.56F
KEARNEY        NOT AVBL
HASTINGS       PTCLDY    67  58  72 S16G26    29.58F
ORD            CLEAR     65  58  78 S15G23    29.51F
YORK           CLOUDY    66  59  77 S21G29    29.60F
AURORA         CLOUDY    67  57  70 S20G28    29.58F
LEXINGTON      CLEAR     65  58  75 S17G24    29.50F
HOLDREGE       CLEAR     66  59  79 S20G31    29.53S
HEBRON         CLOUDY    70  61  71 S23G31    29.63S

...NEBRASKA PANHANDLE...

CITY           SKY/WX    TMP DP  RH WIND       PRES   REMARKS
CHADRON        CLOUDY    64  31  28 W20G29    29.51R
ALLIANCE       PTCLDY    60  38  43 W13       29.51R
SCOTTSBLUFF    LGT RAIN  58  36  43 W18G24    29.57R
SIDNEY         CLOUDY    56  36  47 NW17G26   29.52R

...WESTERN AND NORTH CENTRAL NEBRASKA...

CITY           SKY/WX    TMP DP  RH WIND       PRES   REMARKS
VALENTINE      CLEAR     65  54  67 S17G23    29.42F
AINSWORTH      CLEAR     63  56  80 S17G23    29.45F
ONEILL         CLEAR     65  59  80 S17G26    29.50F
BROKEN BOW     CLEAR     64  57  78 S14       29.49F
IMPERIAL       CLEAR     60  49  66 S14       29.44F
NORTH PLATTE   CLEAR     64  57  78 SE10      29.46F
MCCOOK         CLEAR     67  57  70 S20G37    29.46F

...EASTERN NEBRASKA...

CITY           SKY/WX    TMP DP  RH WIND       PRES   REMARKS
NORFOLK        CLOUDY    66  57  72 S25G31    29.57F
SO SIOUX CITY  CLOUDY    67  58  72 S20G29    29.62F
TEKAMAH        MOCLDY    67  57  70 S16G24    29.65F
COLUMBUS       CLOUDY    66  58  75 S17G25    29.60F
ALBION         CLOUDY    68  58  69 S22G30    29.56F
OMAHA EPPLEY   PTCLDY    67  56  67 S23       29.69F
OFFUTT AFB     CLOUDY    66  56  70 SE14      29.69F
MILLARD        CLOUDY    68  59  72 SE17G23   29.67F
LINCOLN        CLOUDY    69  59  70 S24G33    29.64F
NEBRASKA CITY  LGT RAIN  65  61  85 S16       29.72F
BEATRICE       CLOUDY    70  60  72 S17G35    29.66F
FALLS CITY     CLOUDY    67  57  70 S21G30    29.74F

...NORTHERN KANSAS...

CITY           SKY/WX    TMP DP  RH WIND       PRES   REMARKS
GOODLAND       CLEAR     54  44  69 S13       29.50F
HILL CITY      CLEAR     70  59  68 S23G40    29.54S
NORTON         CLEAR     68  54  60 S23G33    29.51S
PHILLIPSBURG   CLEAR     70  57  64 S21G31    29.53F
SMITH CENTER   CLEAR     68  59  73 S26G32    29.58F
HAYS           CLEAR     68  61  78 S28G39    29.58F
RUSSELL        CLEAR     68  63  84 S31G44    29.60S
CONCORDIA      MOCLDY    70  62  76 S26G44    29.64F
SALINA         PTCLDY    72  63  73 S28G44    29.68S
TOPEKA         CLOUDY    68  60  75 S21G31    29.79F



USA.gov is the U.S. government's official web portal to all federal, state and local government web resources and services.